User: anonymous   Login
Location: Deuil
(48.9767°N, 2.3272°E)
Time: 17:15:34
(UTC+00:00)
Language:

Cosmos 614 Rocket - Orbit

View from above orbital plane
View from above orbital plane
View from above satellite
View from above satellite

Ground track
Ground track

The orbit data is extracted from the following two-line orbital elements,

1 06966U 73098B   22024.88671312  .00000099  00000-0  37226-4 0  9992
2 06966  74.0576 340.9377 0022713 253.1698 106.6967 14.43125286527904
Epoch (UTC): 24 January 2022 21:16:52
Eccentricity: 0.0022713
inclination: 74.0576°
perigee height: 732 km
apogee height: 764 km
right ascension of ascending node: 340.9377°
argument of perigee: 253.1698°
revolutions per day: 14.43125286
mean anomaly at epoch: 106.6967°
orbit number at epoch: 52790

The dashed part of the orbit path shows where the satellite is in the earth's shadow,  

DLR